This is the latest recevied weather packets stored in our database for station/object NO9B. If no packets are shown the sender has not sent any weather packets the latest 10 day(s).
| Time | Temp. | Humidity | Pressure | Rain* | Wind** | Luminosity | Snow |
|---|---|---|---|---|---|---|---|
| 1788516712 | 22.22° C | 94% | 1015.1 hPa | 0 mm | - | 0 W/m² | - |
| 1788516408 | 22.22° C | 94% | 1015.1 hPa | 0 mm | - | 0 W/m² | - |
| 1788516103 | 22.22° C | 94% | 1015.3 hPa | 0.51 mm | - | 0 W/m² | - |
| 1788515803 | 22.78° C | 94% | 1015.3 hPa | 1.27 mm | - | 0 W/m² | - |
| 1788515497 | 22.78° C | 95% | 1015.2 hPa | 0.51 mm | - | 0 W/m² | - |
| 1788515193 | 22.78° C | 96% | 1015.1 hPa | 0 mm | - | 0 W/m² | - |
| 1788514893 | 22.78° C | 96% | 1015 hPa | 0 mm | - | 0 W/m² | - |
| 1788514590 | 22.78° C | 97% | 1015.2 hPa | 0 mm | - | 0 W/m² | - |
| 1788514289 | 22.78° C | 97% | 1015.2 hPa | 0 mm | - | 0 W/m² | - |
| 1788513986 | 23.33° C | 97% | 1015.1 hPa | 0 mm | - | 0 W/m² | - |
| 1788513682 | 23.33° C | 98% | 1015.1 hPa | 0 mm | - | 0 W/m² | - |
| 1788513378 | 23.33° C | 98% | 1014.8 hPa | 0 mm | - | 0 W/m² | - |
| 1788513078 | 23.33° C | 98% | 1014.3 hPa | 0.51 mm | - | 0 W/m² | - |
| 1788512773 | 23.33° C | 98% | 1014.4 hPa | 0.51 mm | - | 0 W/m² | - |
| 1788512469 | 23.33° C | 97% | 1013.9 hPa | 0 mm | - | 0 W/m² | - |
| 1788512169 | 23.33° C | 97% | 1013.9 hPa | 1.78 mm | - | 0 W/m² | - |
| 1788511868 | 23.33° C | 97% | 1014 hPa | 1.78 mm | - | 0 W/m² | - |
| 1788511564 | 23.33° C | 97% | 1014.3 hPa | 0 mm | - | 0 W/m² | - |
| 1788511261 | 23.33° C | 97% | 1014.3 hPa | 0 mm | - | 0 W/m² | - |
| 1788510956 | 23.33° C | 97% | 1014.1 hPa | 0 mm | - | 0 W/m² | - |
| 1788510652 | 23.33° C | 97% | 1013.8 hPa | 0.51 mm | - | 0 W/m² | - |
| 1788510347 | 23.33° C | 97% | 1013.6 hPa | 0.51 mm | - | 0 W/m² | - |
| 1788510042 | 23.33° C | 97% | 1013.7 hPa | 0 mm | - | 0 W/m² | - |
| 1788509737 | 23.33° C | 97% | 1013.6 hPa | 1.27 mm | - | 0 W/m² | - |
| 1788509433 | 23.33° C | 97% | 1013.7 hPa | 1.27 mm | - | 0 W/m² | - |
* Rain latest hour (hover to see other rain measurements)
** Current wind speed in m/s (hover to see current wind gust speed)